CW4740 Weather Reports


Display with metric or nautical units.
time (UTC)temp
F
wind
direction
speed
MPH
gust
MPH
rain 1hr
in
rain 24hr
in
rain mn
in
humidity
%
barometer
mb
20260902002629 83 96 0.0 0.0 0.00 1.06 0.24 85 1015.2
20260902002147 83 96 0.0 0.0 0.00 1.06 0.24 84 1015.1
20260902001726 83 96 0.0 0.0 0.00 1.06 0.24 84 1015.2
20260902001158 83 96 0.0 0.0 0.00 1.06 0.24 84 1015.3
20260902000715 84 96 0.0 0.0 0.00 1.06 0.24 84 1015.4
20260902000150 84 96 0.0 0.0 0.00 1.06 0.24 83 1015.5
20260901235634 84 96 0.0 0.0 0.00 1.06 0.24 84 1015.6
20260901235151 84 96 0.0 0.0 0.00 1.06 0.24 83 1015.7
20260901234648 84 96 0.0 0.0 0.00 1.06 0.24 83 1015.8
20260901234205 84 96 0.0 0.0 0.00 1.06 0.24 83 1015.7
20260901233641 84 96 0.0 3.0 0.00 1.06 0.24 83 1015.8
20260901233159 84 96 0.0 3.0 0.00 1.06 0.24 83 1015.7
20260901232635 85 96 1.0 3.0 0.00 1.06 0.24 82 1015.5
20260901232132 85 96 0.0 4.0 0.00 1.06 0.24 83 1015.3
20260901231708 85 96 1.0 4.0 0.00 1.06 0.24 83 1015.3
20260901231223 85 49 2.0 5.0 0.00 1.06 0.24 82 1015.2
20260901231141 85 49 2.0 5.0 0.00 1.06 0.24 82 1015.2
20260901230657 85 45 1.0 5.0 0.00 1.06 0.24 82 1015.2
20260901230215 85 12 2.0 5.0 0.00 1.06 0.24 82 1015.2
20260901225737 85 51 1.0 5.0 0.00 1.06 0.24 82 1015.2
20260901225136 85 12 0.0 5.0 0.00 1.06 0.24 82 1015.2
20260901224634 85 13 3.0 6.0 0.00 1.06 0.24 81 1015.0
20260901224248 86 15 3.0 6.0 0.00 1.06 0.24 81 1015.1
20260901223722 86 355 3.0 6.0 0.00 1.06 0.24 81 1015.1
20260901223158 86 76 3.0 6.0 0.00 1.06 0.24 81 1015.1
20260901222653 86 19 3.0 7.0 0.00 1.06 0.24 81 1015.0
20260901222129 86 360 3.0 6.0 0.00 1.06 0.24 82 1015.1
20260901221726 86 104 4.0 6.0 0.00 1.06 0.24 81 1015.0
20260901221221 86 25 4.0 6.0 0.00 1.06 0.24 81 1015.0
20260901220717 86 120 1.0 4.0 0.00 1.06 0.24 82 1015.2
20260901220213 86 120 2.0 6.0 0.00 1.06 0.24 81 1015.2
20260901220131 86 120 2.0 6.0 0.00 1.06 0.24 81 1015.2
20260901215640 86 120 3.0 6.0 0.00 1.06 0.24 81 1015.3
20260901215138 86 121 2.0 8.0 0.00 1.06 0.24 82 1015.2
20260901214736 86 120 4.0 8.0 0.00 1.06 0.24 82 1015.3
20260901214653 86 120 4.0 8.0 0.00 1.06 0.24 82 1015.3
20260901214129 86 83 1.0 4.0 0.00 1.06 0.24 83 1015.3
20260901213645 86 83 2.0 4.0 0.00 1.06 0.24 84 1015.2
20260901213202 85 83 2.0 7.0 0.00 1.06 0.24 85 1015.1
20260901212638 85 83 3.0 6.0 0.00 1.06 0.24 85 1015.0
20260901212135 85 125 2.0 9.0 0.00 1.06 0.24 86 1014.8
20260901211654 85 9 5.0 9.0 0.00 1.06 0.24 86 1014.6
20260901211129 84 39 2.0 9.0 0.00 1.06 0.24 87 1014.6
20260901210648 84 69 3.0 9.0 0.00 1.06 0.24 88 1014.6
20260901210246 84 98 4.0 9.0 0.00 1.06 0.24 89 1014.5
20260901205653 83 47 3.0 5.0 0.00 1.06 0.24 90 1014.5
20260901205210 83 36 2.0 5.0 0.01 1.06 0.24 91 1014.7
20260901204726 83 57 2.0 6.0 0.01 1.06 0.24 91 1014.7
20260901204154 83 46 3.0 6.0 0.01 1.06 0.24 91 1014.6
20260901203730 83 17 3.0 4.0 0.01 1.06 0.24 92 1014.5
20260901203144 83 90 1.0 6.0 0.01 1.06 0.24 93 1014.6
20260901202721 83 90 2.0 6.0 0.01 1.06 0.24 92 1014.7
20260901202156 82 86 1.0 4.0 0.01 1.06 0.24 93 1014.7
20260901201634 82 86 3.0 6.0 0.01 1.06 0.24 93 1014.7
20260901201132 82 78 3.0 6.0 0.01 1.06 0.24 93 1014.6
20260901200651 82 36 1.0 5.0 0.01 1.06 0.24 93 1014.7
20260901200227 81 17 2.0 5.0 0.01 1.06 0.24 93 1014.8
20260901200145 81 17 2.0 5.0 0.01 1.06 0.24 93 1014.8
20260901195634 81 16 2.0 4.0 0.01 1.06 0.24 94 1015.0
20260901195152 81 58 0.0 0.0 0.00 1.05 0.23 94 1015.0
20260901194708 80 58 0.0 0.0 0.00 1.05 0.23 94 1014.9
20260901194204 80 58 0.0 0.0 0.00 1.05 0.23 94 1015.0
20260901193700 80 58 0.0 3.0 0.00 1.05 0.23 94 1015.0
20260901193137 80 58 1.0 3.0 0.02 1.05 0.23 94 1015.2
20260901192653 80 53 0.0 0.0 0.06 1.05 0.23 94 1015.2
20260901192151 80 53 0.0 0.0 0.16 1.05 0.23 95 1015.6
20260901191749 80 53 0.0 0.0 0.22 1.05 0.23 95 1015.7
20260901191706 80 53 0.0 0.0 0.22 1.05 0.23 95 1015.7
20260901191203 80 53 0.0 0.0 0.22 1.05 0.23 94 1015.9
20260901190640 80 53 0.0 2.0 0.22 1.05 0.23 94 1015.9
20260901190159 80 53 1.0 4.0 0.22 1.05 0.23 94 1015.8
20260901185628 80 53 0.0 4.0 0.22 1.05 0.23 94 1015.9
20260901185146 80 22 2.0 5.0 0.22 1.05 0.23 94 1016.1
20260901184643 80 32 2.0 8.0 0.22 1.05 0.23 93 1016.2
20260901184221 80 21 4.0 9.0 0.22 1.05 0.23 93 1016.4
20260901183636 80 21 6.0 9.0 0.21 1.04 0.22 92 1016.3
20260901183133 80 333 4.0 9.0 0.20 1.03 0.21 91 1016.3
20260901182711 81 338 5.0 11.0 0.15 0.98 0.16 90 1016.4
20260901182148 82 295 5.0 13.0 0.06 0.89 0.07 87 1016.5
20260901181646 83 318 4.0 13.0 0.00 0.83 0.01 86 1016.4
20260901181224 83 344 6.0 12.0 0.00 0.83 0.01 85 1016.2
20260901181142 83 344 6.0 12.0 0.00 0.83 0.01 85 1016.2
20260901180639 84 339 5.0 12.0 0.00 0.83 0.01 82 1016.3
20260901180159 86 338 3.0 11.0 0.00 0.83 0.01 80 1016.5
20260901175704 87 345 6.0 10.0 0.00 0.83 0.01 79 1016.6
20260901175200 88 82 4.0 10.0 0.00 0.83 0.01 80 1016.6
20260901174636 88 109 4.0 10.0 0.00 0.83 0.01 81 1016.6
20260901174234 88 114 5.0 11.0 0.00 0.83 0.01 80 1016.4
20260901174131 88 114 5.0 11.0 0.00 0.83 0.01 80 1016.4
20260901173628 88 123 5.0 11.0 0.00 0.83 0.01 80 1016.4
20260901173148 88 5 3.0 9.0 0.00 0.83 0.01 80 1016.3
20260901172705 88 93 3.0 7.0 0.00 0.83 0.01 80 1016.4
20260901172203 88 93 2.0 8.0 0.00 0.83 0.01 80 1016.3
20260901171719 88 129 3.0 9.0 0.00 0.83 0.01 79 1016.4
20260901171137 88 104 5.0 9.0 0.00 0.83 0.01 81 1016.5
20260901170634 87 85 3.0 7.0 0.00 0.83 0.01 81 1016.5
20260901170151 87 85 2.0 7.0 0.00 0.83 0.01 82 1016.6
20260901165658 87 85 2.0 7.0 0.00 0.83 0.01 82 1016.7
20260901165134 87 85 3.0 7.0 0.00 0.83 0.01 82 1016.8
20260901164632 87 84 3.0 7.0 0.00 0.83 0.01 82 1016.8
20260901164129 87 84 3.0 7.0 0.00 0.83 0.01 82 1016.8
20260901163727 87 84 3.0 8.0 0.00 0.83 0.01 82 1016.8
20260901163223 86 84 4.0 8.0 0.00 0.83 0.01 82 1016.9
20260901163141 86 84 4.0 8.0 0.00 0.83 0.01 82 1016.9
20260901162659 86 84 3.0 6.0 0.00 0.83 0.01 83 1016.9
20260901162134 86 84 3.0 7.0 0.00 0.83 0.01 83 1016.8
20260901161652 86 84 2.0 7.0 0.00 0.83 0.01 83 1016.8
20260901161228 86 84 2.0 6.0 0.00 0.83 0.01 83 1016.8
20260901160703 86 84 3.0 6.0 0.00 0.83 0.01 82 1016.8
20260901160159 86 84 3.0 6.0 0.00 0.83 0.01 83 1016.8
20260901155706 86 84 3.0 6.0 0.00 0.83 0.01 83 1016.8
20260901155223 86 84 2.0 4.0 0.00 0.83 0.01 83 1016.7
20260901154639 86 84 0.0 4.0 0.00 0.83 0.01 84 1016.8
20260901154136 86 84 1.0 4.0 0.00 0.83 0.01 84 1016.7
20260901153655 85 84 1.0 4.0 0.01 0.83 0.01 83 1016.6
20260901153231 85 84 1.0 4.0 0.01 0.83 0.01 83 1016.7
20260901152646 85 84 0.0 4.0 0.01 0.83 0.01 84 1016.8
20260901152146 85 84 2.0 4.0 0.01 0.83 0.01 84 1016.9
20260901151644 85 84 2.0 4.0 0.01 0.83 0.01 85 1016.9
20260901151242 85 84 3.0 4.0 0.01 0.83 0.01 85 1016.8
20260901150636 85 84 0.0 4.0 0.01 0.83 0.01 85 1016.9
20260901150155 85 84 2.0 6.0 0.01 0.84 0.01 85 1016.8
20260901145639 85 84 2.0 7.0 0.01 0.84 0.01 84 1016.8
20260901145157 86 84 3.0 6.0 0.01 0.84 0.01 83 1016.8
20260901144633 86 84 1.0 6.0 0.01 0.84 0.01 83 1016.7
20260901144151 86 84 2.0 5.0 0.01 0.84 0.01 82 1016.7
20260901143646 87 44 1.0 3.0 0.00 0.83 0.00 80 1016.7
20260901143204 87 44 2.0 3.0 0.00 0.83 0.00 81 1016.7
20260901142741 87 44 1.0 3.0 0.00 0.83 0.00 81 1016.6
20260901142136 87 43 0.0 4.0 0.00 0.83 0.00 82 1016.4
20260901141634 87 23 0.0 4.0 0.00 0.83 0.00 82 1016.4
20260901141212 86 332 0.0 3.0 0.00 0.83 0.00 83 1016.4
20260901140708 86 332 0.0 3.0 0.00 0.83 0.00 84 1016.3
20260901140143 86 332 1.0 4.0 0.00 0.83 0.00 83 1016.3
20260901135650 86 336 2.0 4.0 0.00 0.83 0.00 83 1016.2
20260901135206 86 336 1.0 3.0 0.00 0.83 0.00 84 1016.4
20260901134703 85 336 0.0 3.0 0.00 0.83 0.00 85 1016.3
20260901134219 85 336 0.0 5.0 0.00 0.83 0.00 86 1016.2
20260901133636 85 336 2.0 5.0 0.00 0.83 0.00 86 1016.2
20260901133135 84 336 3.0 5.0 0.00 0.83 0.00 88 1016.2
20260901132731 84 331 1.0 5.0 0.00 0.83 0.00 90 1016.2
20260901132220 84 100 0.0 0.0 0.00 0.83 0.00 91 1016.2
20260901132138 84 100 0.0 0.0 0.00 0.83 0.00 91 1016.2
20260901131639 83 100 0.0 0.0 0.00 0.83 0.00 92 1016.3
20260901131213 83 100 0.0 0.0 0.00 0.83 0.00 93 1016.3
20260901130708 83 100 0.0 0.0 0.00 0.83 0.00 95 1016.2
20260901130204 82 100 0.0 0.0 0.00 0.83 0.00 95 1016.2
20260901125731 82 100 0.0 0.0 0.00 0.83 0.00 96 1016.3
20260901125207 81 100 0.0 0.0 0.00 0.83 0.00 96 1016.1
20260901124642 81 100 0.0 0.0 0.00 0.83 0.00 96 1016.1
20260901124139 81 100 0.0 0.0 0.00 0.83 0.00 97 1016.2
20260901123737 80 100 0.0 0.0 0.00 0.83 0.00 97 1016.1
20260901123211 80 100 0.0 0.0 0.00 0.83 0.00 98 1016.2
20260901122706 80 100 0.0 0.0 0.00 0.83 0.00 97 1016.2
20260901122143 79 100 0.0 0.0 0.00 0.83 0.00 98 1016.1
20260901121641 79 100 0.0 0.0 0.00 0.83 0.00 98 1016.1
20260901121159 79 100 0.0 0.0 0.00 0.83 0.00 98 1016.0
20260901120636 79 103 0.0 0.0 0.00 0.83 0.00 98 1015.9
20260901120135 78 103 0.0 0.0 0.00 0.83 0.00 98 1016.0
20260901115703 78 103 0.0 0.0 0.00 0.83 0.00 98 1016.0
20260901115159 78 103 0.0 0.0 0.00 0.83 0.00 98 1015.9
20260901114636 78 103 0.0 0.0 0.00 0.83 0.00 98 1015.8
20260901114233 78 103 0.0 0.0 0.00 0.83 0.00 98 1015.8
20260901113709 78 103 0.0 0.0 0.00 0.83 0.00 98 1015.7
20260901113225 78 103 0.0 0.0 0.00 0.83 0.00 98 1015.8
20260901112701 78 103 0.0 0.0 0.00 0.83 0.00 98 1015.7
20260901112158 78 103 0.0 0.0 0.00 0.83 0.00 97 1015.5
20260901111735 78 103 0.0 0.0 0.00 0.83 0.00 97 1015.4
20260901111632 78 103 0.0 0.0 0.00 0.83 0.00 97 1015.4
20260901111150 78 103 0.0 0.0 0.00 0.83 0.00 97 1015.4
20260901110701 78 103 0.0 0.0 0.00 0.83 0.00 97 1015.3
20260901110157 78 103 0.0 0.0 0.00 0.83 0.00 97 1015.3
20260901105742 78 103 0.0 0.0 0.00 0.83 0.00 97 1015.2
20260901105135 78 103 0.0 0.0 0.00 0.83 0.00 97 1015.2
20260901104633 78 103 0.0 0.0 0.00 0.83 0.00 97 1015.3
20260901104210 78 103 0.0 0.0 0.00 0.83 0.00 97 1015.2
20260901103646 78 103 0.0 0.0 0.00 0.83 0.00 97 1015.2
20260901103205 78 103 0.0 0.0 0.00 0.83 0.00 97 1015.2
20260901102701 78 103 0.0 0.0 0.00 0.83 0.00 97 1015.2
20260901102137 78 103 0.0 0.0 0.00 0.83 0.00 97 1015.0
20260901101655 78 103 0.0 0.0 0.00 0.83 0.00 97 1015.0
20260901101132 78 103 0.0 0.0 0.00 0.83 0.00 97 1014.9
20260901100729 78 103 0.0 0.0 0.00 0.83 0.00 97 1015.0
20260901100142 78 103 0.0 0.0 0.00 0.83 0.00 97 1015.0
20260901095729 78 103 0.0 0.0 0.00 0.83 0.00 97 1015.0
20260901095646 78 103 0.0 0.0 0.00 0.83 0.00 97 1015.0
20260901095205 78 103 0.0 0.0 0.00 0.83 0.00 97 1015.0
20260901094701 78 103 0.0 0.0 0.00 0.83 0.00 97 1015.0
20260901094157 78 103 0.0 0.0 0.00 0.83 0.00 97 1014.9
20260901093635 78 103 0.0 0.0 0.00 0.83 0.00 97 1014.9
20260901093153 78 103 0.0 0.0 0.00 0.83 0.00 97 1014.9
20260901092630 78 103 0.0 0.0 0.00 0.83 0.00 97 1014.8
20260901092146 78 103 0.0 0.0 0.00 0.83 0.00 97 1014.7
20260901091643 78 103 0.0 0.0 0.00 0.83 0.00 97 1014.8
20260901091159 78 103 0.0 0.0 0.00 0.83 0.00 97 1014.7
20260901090636 78 103 0.0 0.0 0.00 0.83 0.00 97 1014.8
20260901090131 78 103 0.0 0.0 0.00 0.83 0.00 97 1014.9
20260901085719 78 103 0.0 0.0 0.00 0.83 0.00 97 1014.9
20260901085135 78 103 0.0 0.0 0.00 0.83 0.00 97 1015.0
20260901084653 78 103 0.0 0.0 0.00 0.83 0.00 97 1014.9
20260901084250 78 103 0.0 0.0 0.00 0.83 0.00 97 1014.9
20260901083725 78 103 0.0 0.0 0.00 0.83 0.00 97 1014.9
20260901083220 78 103 0.0 0.0 0.00 0.83 0.00 97 1015.0
20260901082635 78 103 0.0 0.0 0.00 0.83 0.00 97 1015.1
20260901082134 78 103 0.0 0.0 0.00 0.83 0.00 97 1015.0
20260901081651 78 103 0.0 0.0 0.00 0.83 0.00 97 1015.0
20260901081147 78 103 0.0 0.0 0.00 0.83 0.00 97 1015.0
20260901080644 78 103 0.0 0.0 0.00 0.83 0.00 97 1015.0
20260901080201 78 103 0.0 0.0 0.00 0.83 0.00 97 1015.0
20260901075629 78 103 0.0 0.0 0.00 0.83 0.00 97 1015.0
20260901075206 78 103 0.0 0.0 0.00 0.83 0.00 97 1015.1
20260901074645 78 103 0.0 0.0 0.00 0.83 0.00 97 1015.1
20260901074141 78 103 0.0 0.0 0.00 0.83 0.00 97 1015.1
20260901073719 78 103 0.0 0.0 0.00 0.83 0.00 97 1015.3
20260901073155 78 103 0.0 0.0 0.00 0.83 0.00 97 1015.3
20260901072712 79 103 0.0 0.0 0.00 0.83 0.00 97 1015.3
20260901072630 79 103 0.0 0.0 0.00 0.83 0.00 97 1015.3
20260901072228 79 103 0.0 0.0 0.00 0.83 0.00 97 1015.2
20260901071644 79 103 0.0 0.0 0.00 0.83 0.00 97 1015.3
20260901071141 79 103 0.0 0.0 0.00 0.83 0.00 97 1015.4
20260901070638 79 103 0.0 0.0 0.00 0.83 0.00 97 1015.3
20260901070135 79 103 0.0 0.0 0.00 0.83 0.00 97 1015.3
20260901065723 79 103 0.0 0.0 0.00 0.83 0.00 97 1015.4
20260901065137 79 103 0.0 0.0 0.00 0.83 0.00 97 1015.4
20260901064715 79 103 0.0 0.0 0.00 0.83 0.00 97 1015.3
20260901064151 79 103 0.0 0.0 0.00 0.83 0.00 97 1015.3
20260901063744 79 103 0.0 0.0 0.00 0.83 0.00 97 1015.3
20260901063159 79 103 0.0 0.0 0.00 0.83 0.00 97 1015.5
20260901062655 79 103 0.0 0.0 0.00 0.83 0.00 96 1015.4
20260901062232 78 103 0.0 0.0 0.00 0.83 0.00 97 1015.4
20260901062150 78 103 0.0 0.0 0.00 0.83 0.00 97 1015.4
20260901061628 78 103 0.0 0.0 0.00 0.83 0.00 96 1015.6
20260901061226 79 103 0.0 0.0 0.00 0.83 0.00 96 1015.5
20260901060641 78 103 0.0 0.0 0.00 0.83 0.00 96 1015.5
20260901060158 78 103 0.0 0.0 0.00 0.83 0.00 96 1015.5
20260901055645 78 103 0.0 0.0 0.00 0.83 0.00 96 1015.6
20260901055144 78 103 0.0 0.0 0.00 0.83 0.00 96 1015.7
20260901054641 78 103 0.0 0.0 0.00 0.83 0.00 96 1015.8
20260901054140 78 103 0.0 0.0 0.00 0.83 0.00 96 1015.7
20260901053719 78 103 0.0 0.0 0.00 0.83 0.00 96 1015.7
20260901053133 78 103 0.0 0.0 0.00 0.83 0.00 96 1015.7
20260901052651 78 103 0.0 0.0 0.00 0.83 0.00 96 1015.8
20260901052207 78 103 0.0 0.0 0.00 0.83 0.00 96 1015.9
20260901051645 78 103 0.0 0.0 0.00 0.83 0.00 95 1015.8
20260901051141 78 103 0.0 0.0 0.00 0.83 0.00 96 1015.9
20260901050718 78 103 0.0 0.0 0.00 0.83 0.00 95 1015.9
20260901050152 79 103 0.0 0.0 0.00 0.83 0.00 96 1016.1
20260901045740 78 103 0.0 0.0 0.00 0.83 0.00 96 1016.1
20260901045134 78 103 0.0 0.0 0.00 0.83 0.00 95 1016.1
20260901044632 78 103 0.0 0.0 0.00 0.83 0.00 95 1016.2
20260901044131 78 103 0.0 0.0 0.00 0.83 0.00 95 1016.2
20260901043629 78 103 0.0 0.0 0.00 0.83 0.00 95 1016.3
20260901043147 78 103 0.0 0.0 0.00 0.83 0.00 95 1016.4
20260901042706 79 103 0.0 0.0 0.00 0.83 0.00 95 1016.4
20260901042143 79 103 0.0 0.0 0.00 0.83 0.00 95 1016.6
20260901041719 79 103 0.0 0.0 0.01 0.83 0.00 95 1016.6
20260901041132 79 103 0.0 0.0 0.02 0.83 0.00 95 1016.6
20260901040629 79 103 0.0 0.0 0.07 0.83 0.00 95 1016.6
20260901040205 79 103 0.0 0.0 0.11 0.83 0.83 95 1016.7
20260901035653 79 103 0.0 0.0 0.12 0.83 0.83 95 1016.8
20260901035149 78 103 0.0 0.0 0.22 0.83 0.83 95 1016.8
20260901034648 78 103 0.0 0.0 0.38 0.83 0.83 95 1016.8
20260901034206 78 103 0.0 0.0 0.50 0.83 0.83 95 1017.1
20260901033703 78 103 0.0 0.0 0.63 0.83 0.83 94 1017.0
20260901033220 78 103 0.0 0.0 0.75 0.83 0.83 94 1017.0
20260901032714 77 103 0.0 0.0 0.78 0.83 0.83 94 1017.0
20260901032150 77 103 0.0 0.0 0.78 0.83 0.83 93 1017.1
20260901031646 77 103 0.0 0.0 0.77 0.82 0.82 92 1017.3
20260901031203 77 103 0.0 0.0 0.76 0.81 0.81 92 1017.4
20260901030637 77 103 0.0 3.0 0.70 0.75 0.76 92 1017.4
20260901030212 78 103 1.0 12.0 0.67 0.72 0.72 92 1017.5
20260901025639 78 103 0.0 13.0 0.67 0.71 0.71 92 1017.6
20260901025135 78 121 8.0 13.0 0.56 0.60 0.61 91 1017.4
20260901024733 79 111 7.0 13.0 0.43 0.45 0.45 92 1017.6
20260901024629 79 111 7.0 13.0 0.43 0.45 0.45 92 1017.6
20260901024227 79 131 6.0 12.0 0.31 0.32 0.32 91 1017.7
20260901023704 80 100 8.0 12.0 0.18 0.19 0.19 90 1017.7
20260901023140 81 103 3.0 7.0 0.07 0.08 0.08 91 1017.7
20260901022638 81 112 2.0 7.0 0.04 0.05 0.05 92 1017.6
20260901022217 81 86 1.0 3.0 0.04 0.05 0.05 91 1017.4
20260901021652 81 86 0.0 0.0 0.04 0.05 0.05 90 1017.3
20260901021128 81 86 0.0 0.0 0.04 0.05 0.05 89 1017.2
20260901020704 81 86 0.0 0.0 0.04 0.05 0.05 89 1017.0
20260901020141 81 86 0.0 0.0 0.04 0.05 0.05 88 1016.9
20260901015628 81 86 0.0 8.0 0.03 0.04 0.04 87 1016.9
20260901015146 82 86 2.0 9.0 0.03 0.04 0.04 86 1016.8
20260901014723 83 105 6.0 9.0 0.01 0.02 0.02 86 1016.8
20260901014641 83 105 6.0 9.0 0.01 0.02 0.02 86 1016.8
20260901014220 84 100 5.0 9.0 0.00 0.01 0.01 86 1016.7
20260901013713 84 346 2.0 4.0 0.00 0.01 0.01 85 1016.7
20260901013134 84 337 2.0 3.0 0.00 0.01 0.01 85 1016.8
20260901012631 84 336 0.0 5.0 0.00 0.01 0.01 85 1016.6
20260901012129 84 355 2.0 5.0 0.00 0.01 0.01 84 1016.6
20260901011726 84 88 0.0 0.0 0.00 0.01 0.01 84 1016.4
20260901011141 84 88 0.0 0.0 0.00 0.01 0.01 84 1016.4
20260901010714 84 88 0.0 0.0 0.00 0.01 0.01 84 1016.4
20260901010135 84 88 0.0 0.0 0.00 0.01 0.01 84 1016.2
20260901005644 84 88 0.0 0.0 0.00 0.01 0.01 85 1016.3
20260901005217 84 88 0.0 0.0 0.00 0.01 0.01 85 1016.3
20260901004638 84 88 0.0 1.0 0.00 0.01 0.01 85 1016.2
20260901004136 84 88 0.0 3.0 0.00 0.01 0.01 85 1016.1
20260901003634 85 88 1.0 3.0 0.00 0.01 0.01 85 1016.2
20260901003152 85 88 2.0 4.0 0.00 0.01 0.01 84 1016.1